Theta_e
325 315 316 311 297 294 292 297 304 306 307 311 319 321 321 325 327 322 345 352 359 360 363 364 366 366 365 364 363 361 361 360 361 361 362 362 361 361 362 362 364 364 362 362 361 360 357 356 355
316 317 312 304 291 287 291 300 302 307 310 312 316 319 329 331 340 342 345 355 359 361 362 363 365 365 365 363 362 361 361 360 361 361 362 362 361 361 363 364 364 364 363 362 360 359 357 355 355
317 315 308 296 287 287 290 298 304 306 309 308 307 320 334 333 344 344 352 355 360 360 361 362 364 364 364 363 362 361 361 359 361 362 361 362 361 361 363 363 364 364 362 361 360 358 357 355 355
310 307 304 291 289 292 296 300 302 303 306 308 311 324 334 344 344 350 354 356 357 359 361 364 364 364 363 363 362 362 361 359 360 362 361 361 361 362 362 363 363 363 362 360 360 358 356 355 354
308 299 291 287 290 294 299 301 301 301 303 306 308 307 330 343 353 353 353 354 354 358 361 363 363 363 363 363 362 361 360 359 359 361 361 361 361 362 362 363 363 363 362 360 359 359 357 356 355
301 296 287 288 293 297 298 301 300 301 302 305 306 315 328 350 349 351 352 350 354 357 360 361 363 362 362 362 361 360 359 358 358 360 360 360 360 361 362 362 362 362 362 361 359 358 357 356 355
298 293 288 288 292 295 300 301 298 300 300 303 308 308 327 346 351 352 351 350 354 357 359 359 360 361 362 361 360 359 359 358 358 358 359 359 360 360 361 361 361 361 360 360 359 357 356 355 354
301 296 291 293 295 295 301 301 299 300 304 309 311 306 324 340 352 353 351 351 353 354 357 357 357 358 358 358 361 360 359 358 358 359 359 359 359 360 361 359 360 360 359 359 357 356 355 354 352
302 293 289 292 295 297 303 302 307 308 305 309 308 309 331 346 352 348 348 351 351 352 354 356 355 355 356 356 358 359 360 359 358 359 359 356 354 356 357 357 360 359 359 357 356 355 354 353 352
295 289 293 300 301 300 304 304 306 306 306 307 308 312 332 347 347 345 345 346 348 348 350 354 354 352 352 356 356 355 355 354 353 354 354 352 352 352 353 355 359 359 358 357 356 355 354 352 343
296 292 297 300 301 303 304 305 308 305 303 305 305 307 318 343 344 346 346 347 347 348 350 352 353 351 350 351 353 353 353 352 352 353 352 348 350 351 349 347 353 352 356 351 352 351 348 344 341
293 299 300 301 302 301 301 304 303 304 305 309 308 309 313 316 340 345 346 347 347 347 348 351 352 350 351 352 352 351 350 350 350 350 347 343 343 342 340 346 347 347 348 346 346 345 343 341 339
296 298 301 302 301 300 303 301 301 302 307 309 309 309 308 312 317 331 347 348 347 345 346 348 351 351 352 349 351 350 349 348 348 349 345 339 340 340 342 344 346 343 342 342 341 340 339 337 337
299 300 300 301 300 300 300 301 301 304 307 307 307 307 306 308 312 313 326 345 345 345 344 347 348 350 351 349 349 349 349 348 347 347 343 339 341 339 343 342 342 338 340 339 337 337 336 336 336
300 296 299 299 298 298 301 298 299 303 305 304 304 306 307 307 308 308 314 338 345 344 344 344 346 347 350 349 350 349 349 348 345 345 342 339 340 339 341 341 339 338 337 335 334 334 334 334 335
295 293 287 294 298 299 298 291 300 303 304 303 304 305 307 307 308 309 310 321 344 341 340 341 344 343 348 347 348 347 347 346 343 343 342 337 340 340 339 341 338 337 336 335 333 333 333 334 332
290 284 287 290 298 298 297 292 300 304 303 302 303 304 305 305 307 309 310 318 340 339 338 339 339 339 343 343 343 343 342 342 340 340 341 338 339 343 341 341 340 337 336 336 334 331 332 329 328
283 283 286 288 293 295 293 293 296 299 301 300 302 304 304 304 306 308 310 313 337 338 338 339 337 340 339 337 337 338 337 338 337 337 341 338 339 346 342 339 339 336 335 333 333 329 329 329 329
289 286 285 288 295 294 292 292 293 297 298 299 301 302 304 305 307 308 310 311 325 338 336 337 335 340 339 335 334 333 332 334 334 338 342 340 339 346 342 340 339 336 336 332 332 330 329 329 336
288 286 285 289 294 291 289 289 292 296 297 298 299 301 303 305 305 308 307 310 316 337 337 336 335 338 341 337 336 335 335 334 335 337 342 342 340 343 344 340 339 339 334 333 332 329 327 328 340
286 284 285 285 290 289 287 285 289 294 297 299 301 301 303 304 304 306 307 309 310 334 337 336 335 336 342 340 338 339 339 335 331 335 340 341 341 342 343 341 339 337 333 333 332 330 329 334 334
284 290 290 288 285 279 286 278 286 288 293 295 298 298 301 301 303 305 306 306 311 317 339 337 336 336 338 343 338 337 338 330 335 334 340 340 340 342 341 341 338 336 333 331 334 332 334 336 332
287 292 289 288 285 281 284 277 282 290 289 292 296 299 300 301 301 303 304 306 307 315 337 339 337 337 337 339 342 338 336 338 336 337 338 340 339 341 340 340 339 336 335 334 334 335 339 336 332
294 289 288 286 282 273 283 280 281 285 288 293 297 305 307 304 303 304 304 305 305 309 322 344 340 339 339 340 340 340 338 337 339 337 338 339 339 339 340 340 341 339 337 336 334 338 340 336 331
290 283 273 272 274 274 285 282 282 288 293 300 301 305 306 308 307 308 308 304 305 305 313 344 344 340 341 343 340 341 341 339 339 340 338 340 338 338 338 339 338 342 339 339 337 337 340 335 332
286 287 280 274 270 277 286 280 285 298 301 303 303 304 306 306 308 308 309 306 305 305 307 321 343 342 343 345 343 341 343 343 340 342 340 343 342 341 341 341 340 340 345 342 341 340 338 335 331
288 284 290 284 281 280 282 287 293 298 299 301 301 304 304 306 308 308 309 309 305 307 305 310 329 343 344 345 346 344 344 343 344 342 343 342 346 345 345 344 342 342 342 344 343 340 335 333 330
293 294 284 284 276 275 282 285 287 291 294 297 298 301 303 304 307 308 310 310 310 309 308 306 310 335 345 346 347 346 345 345 345 344 342 342 346 347 346 345 345 344 346 343 342 337 333 332 328
289 287 288 287 286 279 278 282 292 292 295 293 295 298 300 301 304 306 310 309 308 311 312 312 314 311 333 345 346 346 347 347 345 343 343 343 347 347 346 346 346 345 344 341 339 335 333 331 330
294 290 289 282 277 284 282 284 295 294 294 294 294 296 298 300 302 305 308 310 312 315 315 314 314 318 317 331 344 345 347 347 346 345 342 344 345 347 347 347 346 346 344 341 336 335 333 332 330
Wind_Speed
5 4 1 4 3 5 5 9 4 12 5 2 12 4 11 7 9 6 5 17 21 19 17 17 21 22 22 21 20 19 19 19 18 17 17 17 17 18 18 17 16 15 15 14 13 13 13 12 11
3 3 4 2 5 2 8 6 16 17 9 12 7 3 3 3 6 11 14 16 25 21 17 16 21 23 23 22 21 20 19 19 18 17 16 16 16 17 16 15 15 15 15 14 12 11 11 10 9
3 1 3 4 4 8 8 8 15 6 9 11 10 7 8 6 7 16 13 22 20 19 16 17 23 22 23 22 22 21 20 20 19 18 17 16 15 16 15 15 15 14 15 14 12 10 9 8 7
1 4 4 1 11 9 9 10 8 9 8 7 3 4 3 5 16 11 24 24 20 17 16 20 22 24 23 23 23 22 21 20 20 19 18 17 16 15 15 14 14 13 14 13 12 10 9 7 5
3 3 0 4 10 10 8 12 8 12 7 16 12 7 4 0 16 24 23 21 23 17 15 17 23 24 24 24 23 23 22 21 20 20 19 17 15 14 14 14 13 13 12 12 10 10 9 7 4
3 3 2 8 15 9 8 11 7 9 7 15 9 4 4 9 23 22 22 21 19 22 19 16 21 23 24 23 23 23 22 21 21 20 18 17 16 14 13 13 13 12 12 10 10 8 8 7 5
5 4 6 6 9 9 13 7 4 9 7 12 8 5 4 10 13 18 19 19 18 19 18 16 15 18 22 22 22 22 22 21 20 20 19 18 17 15 13 12 12 11 10 10 9 8 7 7 6
4 4 4 6 11 14 6 6 4 5 16 9 5 5 5 15 19 17 16 16 15 15 17 18 16 15 13 13 21 21 21 21 21 20 20 18 17 16 14 12 11 11 10 10 9 9 7 7 8
1 1 5 5 4 10 13 13 15 6 7 10 7 11 13 22 23 19 17 14 14 12 13 16 17 15 13 12 14 18 22 21 20 19 19 16 8 10 13 11 12 12 11 10 9 9 9 8 9
4 4 6 5 6 11 19 17 23 16 20 21 13 22 8 27 25 24 21 19 17 17 17 15 18 13 12 11 12 11 11 9 9 10 11 8 8 8 9 11 13 13 12 11 11 10 9 8 4
5 8 9 17 15 14 24 23 21 17 26 9 11 11 12 15 21 20 20 23 24 19 14 17 17 14 14 11 10 7 6 6 6 10 10 7 7 7 5 3 6 5 10 4 6 5 4 5 5
7 8 11 14 15 14 21 20 27 19 24 13 8 6 1 6 11 20 20 19 20 21 20 18 17 18 16 11 9 10 9 8 8 10 9 7 4 4 4 4 5 5 5 5 5 4 4 5 6
6 7 10 11 11 11 15 16 20 29 22 16 10 8 6 4 4 8 20 23 21 21 21 22 19 17 15 14 10 9 9 9 9 9 9 7 6 7 6 5 5 5 4 5 5 4 5 5 6
7 17 14 13 12 9 12 16 12 26 16 16 12 11 8 8 9 4 3 15 21 21 22 23 23 20 18 15 16 10 8 10 9 9 10 10 7 7 7 6 6 5 6 6 5 6 5 5 4
6 18 16 13 9 11 12 22 16 11 18 14 10 9 8 10 8 10 8 15 17 22 23 23 24 21 21 19 15 11 9 9 8 8 10 11 8 8 9 7 6 7 7 6 4 4 3 3 4
8 5 6 7 15 5 6 13 12 13 17 19 17 9 9 7 9 9 8 9 20 13 16 18 15 16 16 16 15 12 11 9 8 8 8 12 11 8 7 7 7 6 5 5 5 4 4 5 4
6 5 15 14 7 10 6 7 12 15 14 17 17 18 14 11 7 10 6 8 18 18 17 17 14 17 13 13 10 12 15 11 9 8 8 12 12 9 9 8 7 6 6 6 5 3 5 4 2
11 6 8 14 8 9 12 9 8 12 11 13 17 16 16 10 14 9 11 10 13 15 16 18 14 15 12 6 7 8 9 10 9 9 9 9 10 10 11 8 7 7 5 6 5 5 4 4 3
11 10 10 11 14 7 13 14 9 10 14 12 13 16 18 16 15 8 9 8 9 18 18 16 16 15 14 10 11 10 11 10 9 10 12 10 11 11 11 7 8 6 7 7 7 5 5 2 3
9 11 9 9 10 7 10 16 14 7 8 7 15 17 17 18 16 14 7 9 12 18 21 21 21 18 17 13 13 9 12 10 10 10 12 12 14 13 11 8 7 7 5 6 7 4 3 2 2
6 6 7 6 7 5 8 11 8 8 8 10 12 11 11 15 19 9 5 7 9 13 21 22 23 23 18 16 7 4 4 4 5 8 9 11 13 12 10 9 7 6 5 6 5 6 7 4 2
10 7 6 9 4 5 1 14 12 10 10 10 12 9 9 11 11 4 3 1 3 9 16 19 22 23 21 18 16 15 15 13 10 11 10 11 13 13 11 8 7 7 5 6 7 5 4 5 5
9 13 6 5 12 2 16 3 8 6 12 14 10 8 9 8 9 13 8 7 5 7 14 16 19 21 19 19 19 15 16 11 10 10 13 13 12 14 12 10 10 9 7 8 8 6 6 3 5
12 7 6 5 1 2 6 5 11 11 11 14 7 15 15 12 10 10 10 7 6 5 11 15 17 15 15 18 20 20 20 15 11 11 10 11 9 10 12 12 13 9 9 8 7 6 8 6 6
13 6 6 7 5 7 5 6 11 9 3 13 13 15 17 18 16 15 15 8 8 8 9 13 17 14 13 16 18 21 19 17 17 16 12 12 11 10 13 13 12 9 9 8 7 6 5 6 5
9 3 2 6 3 11 11 5 4 10 8 11 15 15 18 22 20 21 23 14 11 9 10 13 16 18 18 18 17 16 17 12 12 12 12 11 12 13 13 14 13 14 12 9 7 5 5 6 6
6 2 6 5 5 4 5 6 2 18 20 20 19 20 18 16 21 19 20 20 15 9 10 12 15 18 22 22 19 18 16 13 13 14 12 10 11 10 14 16 15 15 11 10 10 6 7 7 5
6 5 3 0 4 4 6 3 5 17 18 18 18 17 18 19 20 19 17 18 13 11 7 3 4 16 18 21 19 18 20 19 16 9 13 8 9 13 15 18 17 12 12 10 10 7 8 10 5
3 3 3 3 4 2 4 2 6 10 11 15 17 17 17 17 15 18 18 12 9 7 10 8 8 1 9 20 20 20 18 19 15 11 10 8 13 16 18 18 15 13 13 12 10 10 9 10 7
4 3 4 4 4 4 4 3 7 10 14 15 17 18 18 16 15 15 17 13 10 8 7 8 7 8 5 6 16 19 19 17 15 15 10 13 14 14 16 16 17 16 16 15 16 14 13 12 9
Wind_Direction
329 315 25 38 55 64 258 253 252 266 315 183 265 159 179 169 153 207 132 150 137 147 151 157 147 139 135 132 129 128 125 122 121 121 122 120 119 117 117 118 118 118 120 120 120 119 114 115 115
330 323 31 64 110 157 259 237 252 258 265 299 16 251 147 212 101 119 119 155 149 145 150 155 150 141 138 135 134 132 131 128 124 121 120 118 118 119 119 120 121 122 122 122 120 117 116 113 106
284 147 86 145 181 193 240 229 251 272 277 301 307 229 158 184 114 151 140 149 147 143 147 158 152 143 141 140 139 138 137 134 131 126 124 121 125 127 127 128 128 128 128 128 125 119 113 109 102
36 18 0 168 240 250 224 258 267 336 320 293 307 333 94 213 160 142 140 146 145 142 145 155 153 146 145 145 144 143 142 140 138 134 134 133 135 132 132 132 134 134 135 135 133 126 122 116 111
43 65 267 259 256 257 264 273 302 296 296 289 316 271 267 128 116 133 144 148 143 142 149 155 156 150 150 150 150 149 148 146 144 143 142 140 139 137 138 139 139 140 138 137 135 134 132 132 143
19 99 93 238 250 275 280 281 288 278 270 284 294 120 264 145 137 151 148 151 152 146 154 160 158 154 154 155 154 153 151 150 149 148 145 143 142 143 144 145 146 145 142 144 142 143 143 147 179
140 104 219 237 268 286 262 272 247 291 295 285 260 212 156 179 153 147 147 148 148 144 147 159 160 157 157 158 157 156 154 152 150 150 149 148 149 151 152 152 149 147 145 148 148 148 162 167 200
147 123 247 226 247 272 275 294 299 286 293 311 304 250 191 187 156 141 137 138 141 148 145 155 161 161 156 162 160 158 156 154 154 154 155 154 154 155 156 154 156 155 155 157 156 158 185 190 214
123 330 250 257 247 275 309 311 293 284 287 323 306 277 210 158 152 139 135 141 144 151 153 153 159 163 157 160 168 162 160 157 157 157 159 156 157 162 163 162 163 161 159 163 165 176 195 209 227
174 199 244 253 286 288 295 290 293 314 312 311 327 332 165 151 156 149 157 155 159 162 164 160 159 158 158 160 165 165 163 157 156 157 159 159 163 165 166 168 166 167 166 170 181 192 201 216 238
242 250 269 275 279 276 285 290 290 289 288 284 292 320 3 161 156 158 162 169 170 161 163 167 159 156 163 169 167 166 161 156 157 163 163 166 165 174 164 157 170 163 174 182 190 194 209 212 237
279 276 273 284 277 281 274 277 281 279 268 274 259 267 275 306 208 172 170 170 160 169 167 167 164 158 167 169 169 168 166 166 166 173 168 164 162 171 160 172 167 170 175 186 194 211 207 226 239
297 302 298 299 293 291 306 286 279 279 280 274 258 258 232 193 259 280 183 176 167 167 169 168 165 165 161 165 168 178 170 167 169 171 176 167 170 177 171 172 174 183 174 191 199 211 215 223 237
263 297 300 305 301 278 289 296 288 283 306 295 258 251 205 219 203 245 224 205 176 173 173 169 170 167 160 163 170 174 174 172 172 175 181 179 179 178 183 178 183 183 190 197 194 205 210 222 216
249 294 296 299 295 289 290 278 272 301 313 298 281 267 264 214 229 202 211 187 205 181 173 175 170 168 163 165 162 167 174 176 178 182 185 186 184 179 183 181 187 194 199 197 196 219 220 248 244
287 308 309 350 312 308 27 300 315 345 340 338 317 281 282 267 234 260 188 159 189 173 173 166 170 167 169 166 165 166 169 176 182 184 182 190 196 185 182 186 194 192 189 193 195 181 212 235 228
0 297 311 300 259 290 205 302 308 310 317 320 321 319 282 276 248 258 244 176 176 178 167 166 159 161 168 166 170 169 166 172 182 186 190 191 194 190 190 194 202 173 192 200 190 190 190 207 183
293 290 281 292 272 278 284 283 304 301 298 317 311 307 304 263 262 225 250 161 157 170 170 160 156 148 155 174 170 171 177 177 170 182 189 185 196 194 193 197 200 178 177 199 182 176 196 195 156
279 289 297 299 292 295 285 291 295 304 303 313 312 314 307 310 271 246 234 160 167 160 153 166 157 158 154 171 175 176 185 185 183 180 187 177 190 202 194 193 193 174 183 189 189 176 167 196 126
295 292 298 290 293 286 286 293 306 285 285 313 297 302 308 311 279 263 227 241 172 165 166 166 176 170 172 174 184 187 184 191 187 186 177 190 193 198 194 189 195 182 166 187 196 141 114 103 148
303 293 309 298 320 282 286 290 292 276 284 297 284 273 290 297 279 264 243 206 141 169 169 174 178 178 178 175 157 130 113 120 173 196 195 188 198 196 196 188 194 177 163 190 199 167 155 136 47
312 278 267 297 7 279 3 286 279 273 288 296 293 279 281 301 297 282 137 160 120 163 174 180 181 183 185 173 177 179 185 184 191 188 192 192 192 197 197 181 179 173 177 186 200 175 150 139 157
277 315 282 282 294 315 282 274 270 282 289 288 275 271 285 284 294 284 240 216 207 147 172 182 188 187 188 184 186 187 193 196 184 180 178 189 192 194 191 183 181 185 184 200 193 156 162 160 143
320 314 313 325 52 338 257 177 272 253 247 274 328 354 339 305 319 312 267 237 227 204 146 170 185 196 194 196 190 192 197 196 185 188 180 191 190 195 195 189 192 188 191 192 192 178 175 174 143
352 31 325 347 347 232 309 316 247 252 356 40 356 359 6 352 343 333 326 275 247 187 169 158 169 180 186 192 205 198 199 200 198 194 184 182 189 194 197 188 193 197 195 190 170 180 154 150 153
296 136 218 292 266 293 309 236 291 47 41 34 19 1 7 351 341 345 346 301 247 201 185 160 176 184 189 191 197 207 205 206 208 197 198 192 193 190 185 190 190 200 198 188 169 161 146 146 145
318 24 219 253 261 278 259 299 185 15 17 14 5 4 360 352 336 344 344 355 292 243 180 181 174 185 190 198 200 199 203 201 206 206 205 198 191 184 175 185 192 197 190 178 172 157 135 138 139
46 338 330 174 297 279 290 42 15 11 0 357 358 347 342 339 344 347 344 340 341 6 42 84 238 187 188 194 198 199 203 206 209 196 204 193 176 185 184 193 193 182 180 168 153 137 135 130 117
346 318 286 229 249 313 320 249 355 353 360 352 346 339 338 332 333 339 340 333 312 9 13 32 26 253 233 192 197 202 202 203 205 202 183 180 189 191 186 189 181 172 171 151 138 128 124 115 106
170 280 268 238 285 269 244 252 263 27 2 344 329 332 331 325 333 336 336 350 336 13 2 23 4 30 357 244 220 198 203 196 195 195 176 192 195 200 193 185 185 179 167 158 147 142 137 131 131